Regional Weather Roundup
Issued by NWS Boston, MA

Home | Current Version | Previous Version | Text Only | Print | Product List | Glossary On
Versions: 1 2 3 4 5 6 7 8 9 10 11 12 13 14 15 16 17 18 19 20 21 22 23 24 25 26 27 28 29 30 31 32 33 34 35 36 37 38 39 40 41 42 43 44 45 46 47 48 49 50
000
ASUS41 KBOX 280810
RWRBOX

REGIONAL WEATHER ROUNDUP
NATIONAL WEATHER SERVICE TAUNTON MA
400 AM EDT THU MAY 28 2015

NOTE:  "FAIR" INDICATES FEW OR NO CLOUDS BELOW 12,000 FEET WITH NO
SIGNIFICANT WEATHER AND/OR OBSTRUCTIONS TO VISIBILITY.  THE FOLLOWING
OBSERVATION LOCATIONS DO NOT REPORT PRESENT WEATHER...PROVINCETOWN...
SMITHFIELD...BLOCK ISLAND...KEENE...AND OXFORD.

MAZALL-280900-
EASTERN MASSACHUSETTS

CITY           SKY/WX    TMP DP  RH WIND       PRES   REMARKS
BOSTON         MOCLDY    64  60  87 SW13      30.11S
BEVERLY        MOCLDY    68  61  78 SW9       30.09S
LAWRENCE       MOCLDY    68  62  81 SW10      30.11S
BEDFORD          N/A    N/A N/A N/A MISG      30.09S
BLUE HILL        N/A     62  59  90 SW14      30.13R
NORWOOD        CLOUDY    65  60  84 S8        30.13R
MARSHFIELD     CLOUDY    66  61  82 SW12G21   30.14S
PLYMOUTH       MOCLDY    63  60  90 SW12      30.15S
TAUNTON        CLOUDY    63  59  87 SW10      30.14S
NEW BEDFORD    CLOUDY    63  59  87 SW15G23   30.15F
$$

MAZALL-280900-
CAPE COD AND THE ISLANDS

CITY           SKY/WX    TMP DP  RH WIND       PRES   REMARKS
FALMOUTH       CLOUDY    66  61  82 SW20G32   30.17R
HYANNIS        MOCLDY    63  60  90 S13       30.16S
CHATHAM        CLEAR     62  60  93 SW10G23   30.18S
PROVINCETOWN   PTCLDY    61  55  82 SW17      30.14S
NANTUCKET      PTCLDY    61  57  87 S13       30.20S
MARTHAS VNYRD  MOCLDY    61  58  90 SW12      30.18S
$$

MAZALL-280900-
CENTRAL AND WESTERN MASSACHUSETTS

CITY           SKY/WX    TMP DP  RH WIND       PRES   REMARKS
WORCESTER      CLOUDY    65  62  90 SW13      30.13F
FITCHBURG      MOCLDY    67  62  84 CALM      30.11F
ORANGE         CLOUDY    65  63  93 S3        30.11F
SPRINGFIELD    CLOUDY    65  63  93 S8        30.10S
WESTFIELD      CLOUDY    65  63  93 S8        30.11S FOG
NORTH ADAMS    CLEAR     62  60  93 CALM      30.09F FOG
PITTSFIELD     MOCLDY    65  62  90 W3        30.11S
$$

RIZALL-280900-
RHODE ISLAND

CITY           SKY/WX    TMP DP  RH WIND       PRES   REMARKS
PROVIDENCE     CLOUDY    64  59  83 SW8       30.15S
NEWPORT        PTCLDY    59  57  93 SW10G18   30.16F
BLOCK ISLAND   MOCLDY    59  55  88 SW14      30.18R
SMITHFIELD     CLOUDY   N/A N/A N/A SW7       30.14S
WESTERLY       PTCLDY    59  56  89 S9        30.16F
$$

CTZALL-280900-
CONNECTICUT

CITY           SKY/WX    TMP DP  RH WIND       PRES   REMARKS
BRADLEY INTL   MOCLDY    66  63  90 S9        30.11F
HARTFORD       CLOUDY    66  62  87 S7        30.13S
BRIDGEPORT     PTCLDY    63  60  90 CALM      30.14S
DANBURY        CLOUDY    67  64  90 SW3       30.14F FOG
GROTON         MOCLDY    59  57  93 S6        30.16R
NEW HAVEN      MOCLDY    61  58  90 S5        30.14S
CHESTER        MOCLDY    63  61  94 SW5       30.16R
MERIDEN        CLOUDY    63  60  90 CALM      30.14S
WILLIMANTIC    CLOUDY    66  62  87 S6        30.15S
OXFORD         CLOUDY    64  61  88 CALM      30.16S
$$

MEZ002-015-021-024-NHZ003-005-008-011-012-014-VTZ005-008-280900-
NORTHERN NEW ENGLAND

CITY           SKY/WX    TMP DP  RH WIND       PRES   REMARKS
PORTLAND ME    MOCLDY    65  61  87 SW5       30.05S
BANGOR ME      MOCLDY    61  59  93 S10       30.02R
CONCORD NH     CLOUDY    68  64  87 S3        30.08S
MANCHESTER NH  MOCLDY    70  63  78 S8        30.07F
NASHUA NH      PTCLDY    69  65  87 CALM      30.09F
PORTSMOUTH NH  MOCLDY    69  63  82 SW9       30.06S
JAFFREY NH     CLOUDY    65  63  93 SW6       30.12S
KEENE NH       CLOUDY    66  64  94 CALM      30.10S
BURLINGTON VT  PTCLDY    70  63  78 S8        30.00R
MT. WASHINGTON FOG       52  52 100 NW41        N/A  VSB 0
$$

NYZ052-076-280900-
EASTERN NEW YORK

CITY           SKY/WX    TMP DP  RH WIND       PRES   REMARKS
ALBANY         CLOUDY    68  65  90 S3        30.07S
NEW YORK CITY  MOCLDY    69  62  78 S7        30.12S
$$

ANZALL-280900-
MARINE OBSERVATIONS

STATION/POSITION TIME  TEMP    WIND        PRES    VSBY  WAVE
                       AIR SEA DIR/SP/G                  HT/PER
                 (UTC) (F)     (DEG/KT/KT) (MB)    (MI)  (FT/S)
BOSTON BUOY      0750   58 53  210/ 12/ 14   N/A           2/ 3
BUZZARDS BAY     0800          210/ 20/ 22   N/A
NANTUCKET SOUND  0750   62 59  200/ 17/ 21   N/A           2/ 3
MASS BAY-STELLWA 0704   56 49  210/  8/ 10   N/A    1 7/8  2/ 5
ISLE OF SHOALS   0800   64     230/ 16/ 17   N/A
S OF BLOCK IS    0708      55                N/A           4/ 5
$$

......................KEY.........................
  SKY/WX - SKY CONDITION/PRESENT WEATHER
  TMP    - TEMPERATURE IN FAHRENHEIT
  DWPT   - DEWPOINT IN FAHRENHEIT
  RH     - RELATIVE HUMIDITY IN PERCENT
  WIND   - DIRECTION AND SPEED IN MPH
  PRES   - MEAN SEA LEVEL PRESSURE IN INCHES OF HG
  WCI    - WIND CHILL INDEX
  VSB    - VISIBILITY IN MILES
  HX     - HEAT INDEX
  TC     - TEMPERATURE IN CELSIUS
  VRB    - VARIABLE WIND DIRECTION
  N/A    - NOT AVAILABLE



USA.gov is the U.S. government's official web portal to all federal, state and local government web resources and services.